User: anonymous   Login
Location: Unspecified
(0.0000°N, 0.0000°E)
Time: 02:30:03
(UTC+02:00)
Language:

Cosmos 1515 Rocket - Orbit

View from above orbital plane
View from above orbital plane
View from above satellite
View from above satellite

Ground track
Ground track

The orbit data is extracted from the following two-line orbital elements,

1 14552U 83122B   18111.61385511 +.00000067 +00000-0 +52218-5 0  9991
2 14552 082.5230 147.8899 0016211 218.2410 141.7656 14.83440743833815
Epoch (UTC): 21 April 2018 14:43:57
Eccentricity: 0.0016211
inclination: 82.5230°
perigee height: 607 km
apogee height: 630 km
right ascension of ascending node: 147.8899°
argument of perigee: 218.2410°
revolutions per day: 14.83440743
mean anomaly at epoch: 141.7656°
orbit number at epoch: 83381

The dashed part of the orbit path shows where the satellite is in the earth's shadow,  

DLR